Regional Weather Roundup
Issued by NWS

Home | Current Version | Previous Version | Text Only | Print | Product List | Glossary On
Versions: 1 2 3 4 5 6 7 8 9 10 11 12 13 14 15 16 17 18 19 20 21 22 23 24 25 26 27 28 29 30 31 32 33 34 35 36 37 38 39 40 41 42 43 44 45 46 47 48 49 50
000
ASUS44 KEWX 301203
RWRTX
SOUTH TEXAS REGIONAL WEATHER ROUNDUP
NATIONAL WEATHER SERVICE AUSTIN/SAN ANTONIO TX
700 AM CDT THU MAR 30 2017

NOTE: "FAIR" INDICATED FEW OR NO CLOUDS BELOW 12,000 FEET WITH NO
SIGNIFICANT WEATHER AND/OR OBSTRUCTIONS TO VISIBILITY.

* - THESE STATIONS ARE NOT NWS OR FAA STATIONS...AND ARE NOT SUBJECT
    TO NWS AND FAA QUALITY CONTROL.

TXZ171-172-183>190-301300-
TEXAS HILL COUNTRY AND EDWARDS PLATEAU

CITY           SKY/WX    TMP DP  RH WIND       PRES   REMARKS
JUNCTION       PTCLDY    46  42  86 W3        29.98S
6HR MIN TEMP:  46; 6HR MAX TEMP:  52;

*LLANO         CLEAR     46  45  93 W3        29.99R
BURNET         CLEAR     50  44  80 W7        29.96R WCI  47
6HR MIN TEMP:  50; 6HR MAX TEMP:  56;

*HORSESHOE BAY CLEAR     50  45  83 W5        29.95R WCI  48
6HR MIN TEMP:  49; 6HR MAX TEMP:  57;

*KERRVILLE     CLEAR     49  44  84 NW12      29.96R WCI  44
6HR MIN TEMP:  49; 6HR MAX TEMP:  56;

*FREDERICKSBRG CLEAR     47  41  79 NW8       29.96S WCI  43
*ROCKSPRINGS   PTCLDY    45  41  87 CALM      30.01S
*BOERNE STAGE  CLEAR     50  41  71 NW3       29.95S
*CASTROVILLE   CLEAR     50  44  80 CALM      29.97S
HONDO          CLEAR     49  43  80 W5        29.96S WCI  47
6HR MIN TEMP:  47; 6HR MAX TEMP:  63;

*UVALDE        CLEAR     45  43  93 CALM      29.98R
6HR MIN TEMP:  44; 6HR MAX TEMP:  60;

DEL RIO        PTCLDY    53  45  74 NW5       29.98S
6HR MIN TEMP:  53; 6HR MAX TEMP:  59;

LAUGHLIN AFB   PTCLDY    53  44  73 N9        29.97F
6HR MIN TEMP:  53; 6HR MAX TEMP:  57;

CARRIZO SPRGS  PTCLDY    52  41  66 NW3       29.97S
*EAGLE PASS    SUNNY     45  41  87 CALM      29.98S
$$

TXZ173-191>194-202-209-217>225-228-301300-
CENTRAL AND SOUTH CENTRAL TEXAS

CITY           SKY/WX    TMP DP  RH WIND       PRES   REMARKS
GEORGETOWN     CLEAR     52  43  71 W3        29.92S
AUSTIN/BERGSTM PTCLDY    53  47  79 NW6       29.92F
6HR MIN TEMP:  52; 6HR MAX TEMP:  65;

AUSTIN/MABRY   CLEAR     54  47  77 NW3       29.93S
6HR MIN TEMP:  54; 6HR MAX TEMP:  63;

*AUSTIN/EXEC   CLEAR     52  46  82 W5        29.93S
*LAGO VISTA    CLEAR     51  47  86 W5        29.93S
6HR MIN TEMP:  51; 6HR MAX TEMP:  59;

SAN MARCOS     CLEAR     50  46  87 NW7       29.94S WCI  47
NEW BRAUNFELS  CLEAR     52  45  77 CALM      29.92S
6HR MIN TEMP:  52; 6HR MAX TEMP:  64;

RANDOLPH AFB   CLEAR     53  45  75 W3        29.94R
6HR MIN TEMP:  52; 6HR MAX TEMP:  63;

PT SAN ANTONIO CLEAR     51  45  78 CALM      29.93R
6HR MIN TEMP:  50; 6HR MAX TEMP:  64;

SAN ANTONIO    CLEAR     52  44  74 W3        29.95R
6HR MIN TEMP:  52; 6HR MAX TEMP:  63;

STINSON FIELD  CLEAR     53  45  74 NW5       29.93S
6HR MIN TEMP:  51; 6HR MAX TEMP:  68;

*PLEASANTON    CLEAR     52  45  78 W5        29.96R
6HR MIN TEMP:  52; 6HR MAX TEMP:  66;

*LA GRANGE     CLEAR     56  51  85 NW5       29.89F
6HR MIN TEMP:  56; 6HR MAX TEMP:  66;

*GIDDINGS      CLEAR     54  48  82 NW3       29.92S
6HR MIN TEMP:  54; 6HR MAX TEMP:  64;

*GONZALES      CLEAR     54  50  87 NW7       29.92S
6HR MIN TEMP:  54; 6HR MAX TEMP:  64;

$$

TXZ163>164-176>182-195>201-210>213-226-227-235-301300-
SOUTHEAST TEXAS

CITY           SKY/WX    TMP DP  RH WIND       PRES   REMARKS
COLLEGE STN    CLEAR     55  49  80 NW5       29.90S
6HR MIN TEMP:  55; 6HR MAX TEMP:  66;

*BRYAN         CLEAR     53  49  89 W5        29.91S
6HR MIN TEMP:  53; 6HR MAX TEMP:  64;

*CALDWELL      NOT AVBL
*CROCKETT      CLEAR     54  46  76 CALM      29.90F
*BRENHAM       CLEAR     56  50  80 NW10      29.90S
6HR MIN TEMP:  56; 6HR MAX TEMP:  65;

HUNTSVILLE     CLOUDY    56  49  77 NW7       29.87F
6HR MIN TEMP:  56; 6HR MAX TEMP:  65;

CONROE         CLOUDY    57  50  77 NW8       29.86F
6HR MIN TEMP:  57; 6HR MAX TEMP:  64;

HOUSTON BUSH   CLOUDY    61  52  72 NW16G25   29.82F
6HR MIN TEMP:  61; 6HR MAX TEMP:  66;

HOUSTON HOBBY  PTCLDY    62  52  69 N15G22    29.81F
6HR MIN TEMP:  62; 6HR MAX TEMP:  67;

*HOUSTON SW AP PTCLDY    60  53  77 NW10G22   29.83S
6HR MIN TEMP:  59; 6HR MAX TEMP:  64;

PEARLAND       PTCLDY    64  54  69 N8        29.82S
6HR MIN TEMP:  64; 6HR MAX TEMP:  70;

HOUSTON HOOKS  PTCLDY    60  53  77 NW13      29.85F
6HR MIN TEMP:  59; 6HR MAX TEMP:  65;

ELLINGTON FLD  NOT AVBL
SUGAR LAND     PTCLDY    61  51  70 N15       29.82F
6HR MIN TEMP:  61; 6HR MAX TEMP:  67;

*HOUSTON EXEC  CLOUDY    57  50  77 N12G17    29.87F
*CLEVELAND MUN PTCLDY    59  53  82 NW13      29.84F
*WHARTON       MOCLDY    60  51  71 NW16G24   29.86F
*COLUMBUS      FAIR      57  48  70 NW13G21   29.89S
6HR MIN TEMP:  57; 6HR MAX TEMP:  64;

*EAGLE LAKE    SUNNY     59  53  79 N9        29.88S
6HR MIN TEMP:  59; 6HR MAX TEMP:  67;

$$

TXZ214>216-236>238-301300-
THE UPPER TEXAS COAST

CITY           SKY/WX    TMP DP  RH WIND       PRES   REMARKS
*ORANGE        CLEAR     63  61  94 N6        29.83R
6HR MIN TEMP:  63; 6HR MAX TEMP:  71;

PORT ARTHUR    CLEAR     62  56  80 N12       29.82R
6HR MIN TEMP:  62; 6HR MAX TEMP:  69;

GALVESTON      CLEAR     66  57  72 N17       29.82R
6HR MIN TEMP:  66; 6HR MAX TEMP:  73;

ANGLETON       CLEAR     63  53  70 N13       29.82R
6HR MIN TEMP:  62; 6HR MAX TEMP:  67;

*BAY CITY      MOCLDY    62  53  74 NW12G17   29.84R
PALACIOS       MOCLDY    60  51  72 NW15G30   29.84F
6HR MIN TEMP:  60; 6HR MAX TEMP:  71;

$$

TXZ229>234-239>247-301300-
TEXAS COASTAL BEND AND RIO GRANDE PLAINS

CITY           SKY/WX    TMP DP  RH WIND       PRES   REMARKS
VICTORIA       MOCLDY    60  51  72 NW12      29.89S
6HR MIN TEMP:  60; 6HR MAX TEMP:  65;

*BEEVILLE      MOCLDY    61  48  63 N14G21    29.92R
6HR MIN TEMP:  61; 6HR MAX TEMP:  69;

ROCKPORT       MOCLDY    63  49  60 NW24G30   29.87F
6HR MIN TEMP:  63; 6HR MAX TEMP:  69;

*PORT ARANSAS  MOCLDY    64  50  61 N20       29.88S
6HR MIN TEMP:  64; 6HR MAX TEMP:  71;

*PORT LAVACA   MOCLDY    60  53  78 NW15      29.89S
6HR MIN TEMP:  60; 6HR MAX TEMP:  67;

*INGLESIDE     MOCLDY    62  53  72 NW17      29.89R
CORPUS CHRISTI MOCLDY    63  48  58 NW21      29.89S
6HR MIN TEMP:  61; 6HR MAX TEMP:  68;

CORPUS NAS     PTCLDY    66  50  56 N25       29.88S
6HR MIN TEMP:  66; 6HR MAX TEMP:  73;

*ROBSTOWN      MOCLDY    64  48  54 N13       29.91R
ALICE          PTCLDY    62  45  53 N13       29.91R
6HR MIN TEMP:  61; 6HR MAX TEMP:  68;

KINGSVILLE NAS MOCLDY    63  50  62 NW17G23   29.90S
6HR MIN TEMP:  60; 6HR MAX TEMP:  67;

COTULLA        PTCLDY    54  43  66 NW6       29.97S
6HR MIN TEMP:  53; 6HR MAX TEMP:  71;

*FAITH RANCH   CLEAR     55  41  58 N7        29.99R
LAREDO         PTCLDY    60  42  51 NW9       29.98R
6HR MIN TEMP:  60; 6HR MAX TEMP:  73;

$$

TXZ248>255-301300-
DEEP SOUTH TEXAS

CITY           SKY/WX    TMP DP  RH WIND       PRES   REMARKS
BROWNSVILLE    MOCLDY    69  67  93 NW13      29.85R
6HR MIN TEMP:  69; 6HR MAX TEMP:  77;

PORT ISABEL    CLEAR     67  61  81 NW20      29.85R
6HR MIN TEMP:  67; 6HR MAX TEMP:  74;

*SOUTH PADRE   NOT AVBL
HARLINGEN      CLEAR     64  52  64 N17       29.87R
6HR MIN TEMP:  63; 6HR MAX TEMP:  67; 6HR PCP: TRACE;

*HEBBRONV


USA.gov is the U.S. government's official web portal to all federal, state and local government web resources and services.